Location: *
(42.1147°N, 1.7867°W)
Time: 04:17:42
(UTC+00:00)

Daily predictions for brighter satellites

Satellite Brightness Start Highest point End
(mag) Time Altitude Azimuth Time Altitude Azimuth Time Altitude Azimuth
CZ-4C R/B 4.4 00:22:51 10° NNW 00:26:10 29° N 00:26:10 29° N
Cosmos 2278 Rocket 4.1 01:47:36 26° NNE 01:47:36 26° NNE 01:49:56 10° NNE
ADEOS II 3.9 02:00:18 10° NNE 02:03:18 26° ENE 02:03:18 26° ENE
Resurs 1-4 Rocket 3.9 02:06:56 10° N 02:09:07 25° N 02:09:07 25° N
SL-16 R/B 4.1 02:17:55 24° NNW 02:17:55 24° NNW 02:20:15 10° NNW
Lacrosse 5 4.3 02:14:30 15° N 02:14:35 15° N 02:17:34 10° NNE
Cosmos 1943 Rocket 4.2 02:21:24 19° ESE 02:21:43 19° E 02:25:31 10° NE
NOSS 3-2 (A) 4.5 02:24:53 37° E 02:24:53 37° E 02:29:46 10° NE
ATLAS 5 CENTAUR R/B 3.9 02:33:14 20° N 02:33:14 20° N 02:35:10 10° NNE
ATLAS 3B R/B 4.2 02:33:27 22° SE 02:35:01 24° ESE 02:40:06 10° ENE
CZ-2D R/B 3.8 02:32:37 10° N 02:34:57 25° NNW 02:34:57 25° NNW
Atlas Centaur 2 4.2 02:42:54 24° SE 02:42:54 24° SE 02:47:11 10° ESE
Cosmos 2297 4.2 02:50:18 53° N 02:50:18 53° N 02:54:42 10° NNE
SL-4 R/B 4.5 03:03:02 16° NNE 03:03:02 16° NNE 03:04:30 10° NE
Cosmos 2369 Rocket 3.1 03:05:39 36° SE 03:07:01 43° ESE 03:12:22 10° NE
Meteor 1-20 Rocket 4.5 03:06:14 10° N 03:11:41 64° ENE 03:14:18 31° SSE
IRIDIUM 106 4.3 03:15:03 83° NE 03:15:03 83° NE 03:20:08 10° N
ARIANE 5 R/B 3.1 03:14:14 10° N 03:18:09 45° NNW 03:18:09 45° NNW
CENTAUR R/B 3.2 03:17:25 33° SSE 03:19:28 45° ESE 03:25:47 10° NE
Cosmos 1869 Rocket 4.0 03:17:30 10° N 03:21:58 62° E 03:22:29 57° ESE
Cosmos 1782 3.7 03:22:37 47° E 03:22:37 47° E 03:26:14 10° NNE
USA 238 DEB 3.6 03:26:37 55° W 03:27:53 66° NW 03:34:48 10° NNE
Cosmos 540 Rocket 3.7 03:28:25 55° NW 03:28:25 55° NW 03:33:03 10° NNE
USA 238 3.7 03:26:43 55° WSW 03:28:00 67° NW 03:34:56 10° NNE
Cosmos 2278 Rocket 4.2 03:29:27 14° NW 03:29:27 14° NW 03:32:18 10° NNW
Lacrosse 5 rocket 3.4 03:27:05 14° NNW 03:30:01 27° NNE 03:33:46 10° E
Cosmos 2228 Rocket 4.3 03:33:27 32° NNW 03:33:27 32° NNW 03:36:15 10° N
Meteor 1-28 Rocket 4.4 03:36:54 33° N 03:36:54 33° N 03:39:04 10° NNW
Cosmos 2344 3.5 03:33:20 45° SW 03:35:56 76° NW 03:44:06 10° NE
Unknown 4.4 03:36:33 41° SE 03:36:38 41° SE 03:40:32 10° ENE
IDEFIX/ARIANE 42P 3.4 03:32:27 10° NNE 03:37:34 49° E 03:41:51 14° S
Unknown 4.4 03:40:52 41° SSE 03:41:10 42° SE 03:45:05 10° ENE
Unknown 3.5 03:42:38 75° ENE 03:42:38 75° ENE 03:46:14 10° NE
Cosmos 1125 Rocket 3.7 03:37:20 10° NNW 03:42:40 74° ENE 03:47:58 10° SSE
Unknown 4.3 03:42:29 42° SSE 03:42:49 43° SE 03:46:46 10° ENE
SeaSat 1 2.6 03:39:25 10° NNE 03:44:21 69° ESE 03:46:15 37° S
ADEOS II 2.9 03:39:56 10° N 03:44:14 33° WNW 03:44:14 33° WNW
Unknown 4.1 03:44:17 48° SSE 03:44:38 49° SE 03:48:38 10° ENE
Unknown 4.2 03:45:39 44° SSE 03:46:07 46° SE 03:50:07 10° ENE
Unknown 4.2 03:47:16 45° SSE 03:47:47 48° SE 03:51:47 10° ENE
Unknown 4.1 03:50:26 46° S 03:51:05 51° SE 03:55:06 10° ENE
Meteor 1-25 Rocket 4.2 03:46:40 10° NNW 03:52:16 57° W 03:54:53 30° SSW
Unknown 4.0 03:52:02 46° S 03:52:43 53° SE 03:56:46 10° ENE
Unknown 3.4 03:53:06 66° NW 03:53:08 66° NW 03:56:57 10° NE
Unknown 4.0 03:53:37 46° S 03:54:23 55° SE 03:58:26 10° ENE
Meteor 1-14 Rocket 4.0 03:49:07 10° NNW 03:54:39 74° W 04:00:10 10° S
Cosmos 1461 3.6 03:52:06 10° NNW 03:56:03 52° NE 04:00:06 10° SE
Unknown 4.0 03:55:14 47° S 03:56:03 57° SE 04:00:07 10° ENE
Unknown 3.8 03:55:32 52° S 03:56:14 63° SE 04:00:18 10° ENE
COSMOS 2487 4.2 03:53:46 10° N 03:56:58 33° ENE 04:00:09 10° SE
Unknown 3.5 03:57:53 61° SSW 03:58:30 79° SE 04:02:34 10° NE
Cosmos 2150 Rocket 4.4 03:53:32 10° NNW 03:58:38 42° WSW 03:59:04 41° WSW
Lacrosse 5 4.2 03:55:43 10° NNW 03:59:22 19° NNE 04:02:59 10° ENE
Unknown 3.9 03:58:28 46° SSW 03:59:23 61° SE 04:03:29 10° ENE
Unknown 3.7 04:00:24 51° SSW 04:01:19 72° SE 04:05:27 10° NE
Cosmos 372 Rocket 4.2 03:57:12 10° NNW 04:02:07 43° WSW 04:03:30 35° SW
NOSS 3-3 (A) 4.5 03:54:44 10° NW 04:02:20 70° WSW 04:10:35 10° SSE
NOSS 3-3 (C) 4.5 03:54:50 10° NW 04:02:26 71° WSW 04:10:43 10° SSE
Unknown 3.7 04:01:56 49° SSW 04:02:56 73° SE 04:07:04 10° NE
Unknown 3.7 04:02:19 46° SSW 04:03:22 68° SE 04:07:29 10° ENE
Cosmos 1943 Rocket 2.2 04:02:57 37° WSW 04:04:56 58° WNW 04:10:25 10° NNE
Unknown 3.7 04:04:51 44° SSW 04:06:02 70° SE 04:10:09 10° ENE
USA 215 3.3 04:00:22 10° NE 04:06:56 76° SE 04:11:18 23° SW
Unknown 3.6 04:08:03 42° SW 04:09:21 74° SE 04:13:30 10° NE
Cosmos 2263 4.1 04:06:17 25° SSW 04:09:39 83° WNW 04:15:18 10° NNE
Unknown 3.6 04:09:38 41° SW 04:10:59 77° SE 04:15:08 10° NE
CZ-2C R/B 4.2 04:08:19 10° NNW 04:10:56 23° NW 04:10:56 23° NW
Unknown 3.6 04:11:14 40° SW 04:12:39 79° SE 04:16:48 10° NE
Unknown 3.6 04:12:50 39° SW 04:14:19 81° SE 04:18:28 10° NE
NOSS 3-2 (A) 4.1 04:12:17 27° W 04:14:47 39° NW 04:20:57 10° NNE
NOSS 3-2 (C) 3.6 04:13:00 30° WSW 04:15:50 55° NW 04:22:18 10° NNE
ISS -2.3 04:20:22 23° S 04:20:22 23° S 04:22:09 10° SSE
Cosmos 482 Debris 3.9 04:21:01 41° SSW 04:21:01 41° SSW 04:23:54 10° SE
Unknown 3.5 04:19:13 34° SW 04:20:57 89° NW 04:25:07 10° NE
Unknown 3.5 04:20:51 33° SW 04:22:39 87° NW 04:26:49 10° NE
Cosmos 1092 Rocket 4.0 04:17:17 13° SSW 04:22:45 59° W 04:28:49 10° N
Unknown 3.5 04:22:25 32° WSW 04:24:17 84° NW 04:28:27 10° NE
ATLAS 3B R/B 2.6 04:20:45 22° SW 04:25:08 66° NW 04:31:42 10° NNE
Cosmos 1707 Rocket 4.0 04:23:31 28° SW 04:25:19 41° WNW 04:29:31 10° N
Unknown 3.5 04:24:02 31° WSW 04:25:57 82° NW 04:30:07 10° NE
Unknown 3.5 04:25:37 30° WSW 04:27:36 80° NW 04:31:46 10° NE
ATLAS 5 CENTAUR R/B 3.8 04:26:55 10° NNW 04:27:37 11° NNW 04:28:25 10° N
COSMOS 2441 4.4 04:22:49 10° NNE 04:27:43 83° ESE 04:32:37 10° SSW
H-2A R/B 2.2 04:24:31 10° N 04:28:18 61° WNW 04:31:01 18° SSW
Atlas Centaur 2 3.8 04:25:31 20° SW 04:29:42 34° S 04:36:56 10° ESE
Unknown 3.6 04:28:47 28° WSW 04:30:55 75° NW 04:35:04 10° NE
Starlink (trailer) 3.6 04:30:23 27° WSW 04:32:35 73° NW 04:36:44 10° NE
Unknown 3.6 04:31:59 26° WSW 04:34:15 71° NW 04:38:24 10° NE
Unknown 3.6 04:33:36 25° WSW 04:35:56 69° NW 04:40:04 10° NE
ADEOS 4.0 04:31:19 10° N 04:36:14 43° WNW 04:40:23 14° SW
Cosmos 1733 Rocket 3.0 04:34:35 10° NNW 04:39:00 63° W 04:43:24 10° S
Cosmos 1340 3.8 04:35:27 10° N 04:39:08 47° ENE 04:42:47 10° SSE
Iridium 4 Rocket 3.5 04:35:20 10° SSW 04:39:50 43° W 04:44:02 10° NNW
Meteor 1-27 Rocket 3.9 04:34:21 10° S 04:40:16 82° E 04:46:07 10° NNE
USA 267 4.1 04:34:15 10° ESE 04:40:32 51° NNE 04:46:49 10° NW
Meteor 2-6 Rocket 4.4 04:35:45 10° SSW 04:41:23 54° WNW 04:47:12 10° N
PSLV R/B 4.2 04:37:31 10° N 04:41:30 35° WNW 04:44:30 16° SW
SL-4 R/B 3.2 04:39:13 10° NW 04:42:26 34° NNE 04:45:49 10° E
Unknown 3.8 04:40:01 21° WSW 04:42:37 62° NNW 04:46:44 10° NE
Unknown 3.8 04:41:35 21° WSW 04:44:15 60° NNW 04:48:21 10° NE
Unknown 3.8 04:42:22 20° WSW 04:45:03 58° NNW 04:49:10 10° NE
Meteor 1-10 Rocket 4.4 04:39:58 10° SSW 04:45:43 56° WNW 04:51:35 10° N
Unknown 3.9 04:44:47 19° WSW 04:47:35 57° NNW 04:51:41 10° NE
Cosmos 1315 Rocket 2.9 04:44:24 10° S 04:48:30 87° ESE 04:52:41 10° N
Unknown 3.9 04:46:30 18° WSW 04:49:22 53° NNW 04:53:26 10° NE
Cosmos 44 3.4 04:45:04 12° SW 04:49:44 66° NW 04:54:34 10° NNE
Unknown 3.9 04:47:38 18° WSW 04:50:33 54° NNW 04:54:38 10° NE
Cosmos 1833 4.1 04:45:24 10° NNW 04:50:59 66° WSW 04:56:31 10° S
Cosmos 2369 Rocket 3.1 04:47:29 16° WSW 04:51:10 30° NW 04:56:08 10° N
Unknown 4.0 04:49:40 17° WSW 04:52:39 51° NNW 04:56:43 10° NE
Meteor 1-11 Rocket 3.6 04:47:11 10° NNW 04:52:48 74° W 04:58:18 10° S
Unknown 4.0 04:51:11 16° WSW 04:54:15 51° NNW 04:58:19 10° NE
Unknown 4.0 04:51:57 16° WSW 04:55:03 50° NNW 04:59:06 10° NE
Unknown 4.0 04:54:17 15° WSW 04:57:31 50° NNW 05:01:34 10° NE
CZ-3 R/B 4.1 04:28:15 12° W 04:57:52 41° SSW 05:06:58 10° SE
Unknown 4.1 04:57:35 14° WSW 05:00:56 46° NNW 05:04:58 10° NE
Unknown 4.2 04:59:12 13° W 05:02:37 45° NNW 05:06:37 10° NE
Unknown 4.2 05:00:46 13° W 05:04:16 44° NNW 05:08:15 10° NE
SKYMED 2 4.5 05:00:39 10° SSE 05:04:52 55° ENE 05:09:08 10° N
Unknown 4.3 05:02:22 12° W 05:05:56 43° NNW 05:09:56 10° NE
BREEZE-M DEB (TANK) 3.4 04:56:45 10° W 05:06:27 56° N 05:09:38 10° ENE
Cosmos 1500 3.4 05:04:27 10° NNW 05:08:03 46° W 05:11:38 10° SSW
Cosmos 1782 Rocket 4.4 05:04:02 10° N 05:08:20 57° E 05:12:38 10° SSE
Cosmos 1553 Rocket 4.0 05:02:12 10° NNW 05:08:25 63° W 05:14:28 10° S
Cosmos 1656 Rocket 4.0 05:03:16 10° SW 05:08:44 48° WNW 05:14:13 10° NNE
Cosmos 2242 Rocket 3.8 05:04:31 10° SSW 05:08:57 50° W 05:13:22 10° N
Unknown 4.3 05:05:37 11° W 05:09:20 41° NNW 05:13:16 10° NE
Lacrosse 5 rocket 1.6 05:05:13 10° NW 05:09:24 54° SW 05:13:47 10° SSE
CENTAUR R/B 3.3 05:04:38 10° WSW 05:10:13 39° NW 05:16:47 10° NNE
Cosmos 1400 Rocket 4.2 05:07:57 10° WSW 05:10:50 19° WNW 05:13:43 10° NNW
Unknown 4.4 05:07:15 11° W 05:11:01 40° NNW 05:14:56 10° NE
Timation 2 Rocket 3.8 05:05:05 10° NNW 05:11:06 71° WSW 05:17:01 10° SSE
Unknown 4.4 05:08:52 10° W 05:12:44 39° NNW 05:16:39 10° NE
Unknown 4.4 05:10:19 10° W 05:14:13 39° NNW 05:18:08 10° NE
Aureole 2 Rocket 1.9 05:13:04 10° SSW 05:15:45 54° WNW 05:18:24 10° N
Unknown 4.5 05:12:22 10° W 05:16:15 37° NNW 05:20:08 10° NE
IDEFIX/ARIANE 42P 3.8 05:12:47 10° NNW 05:16:48 23° WNW 05:20:49 10° WSW
Unknown 4.4 05:13:32 10° W 05:17:25 39° NNW 05:21:20 10° NE
Hubble Space Telescope 3.1 05:17:18 10° SSW 05:18:56 12° S 05:20:35 10° SSE
Cosmos 1703 Rocket 3.6 05:15:24 10° SSW 05:19:50 73° W 05:24:17 10° N
Cosmos 1812 3.6 05:16:42 10° SW 05:20:06 30° WNW 05:23:33 10° NNW
Unknown 4.5 05:16:56 10° W 05:20:47 37° NNW 05:24:41 10° NE
